Location: De Greiden
(52.9496°N, 5.9137°E)
Time: 01:43:52
(UTC+00:00)

Cosmos 1898 Rocket - Pass Details

Date: 24 January 2021
Orbit: 754 x 783 km, 74.0° (Epoch: 26 February)

Event Time Altitude Azimuth Distance (km) Brightness Sun altitude
Rises 19:14:40 0° 222° (SW) 3,237 7.2 -28.0°
Reaches altitude 10° 19:17:07 10° 228° (SW) 2,310 6.5 -28.3°
Maximum altitude 19:22:12 50° 303° (WNW) 979 4.3 -29.1°
Enters shadow 19:23:32 40° 346° (NNW) 1,124 4.4 -29.3°
